Temp
58 58 58 59 59 58 61 65 61 72 70 63 64 56 58 54 57 61 58 60 58 57 56 55 55 54 56 61 61 57 60 60 53 55 59 61 62 61 61 54 50 54 50 52
58 58 58 58 58 58 62 63 63 73 70 57 55 57 55 57 57 56 58 56 59 60 55 51 55 56 60 60 60 57 61 56 51 49 54 57 55 59 60 61 56 50 47 53
58 58 58 57 57 57 61 64 59 66 66 63 60 57 55 53 57 56 59 57 61 59 55 58 53 54 56 58 59 53 58 56 52 49 51 57 52 54 57 56 50 51 53 56
58 58 57 57 57 57 60 62 54 55 57 57 58 59 57 55 53 58 60 57 58 58 53 55 53 56 57 59 55 59 59 52 56 56 57 56 55 54 56 53 54 50 55 56
58 58 57 57 57 56 64 61 60 62 58 57 59 54 55 55 55 56 55 55 56 60 56 57 53 57 57 56 58 58 57 52 53 50 57 56 51 53 54 55 56 56 57 56
58 57 57 57 57 57 64 63 63 64 51 56 57 56 56 55 57 55 57 58 58 56 56 60 62 63 61 60 58 56 54 54 51 45 54 51 45 53 54 55 59 59 53 62
57 57 57 57 57 58 66 63 64 61 53 58 57 55 56 54 55 55 56 59 57 56 63 62 61 60 60 60 59 61 54 52 50 44 48 35 54 62 60 58 60 63 62 64
57 57 57 57 57 57 61 63 62 60 55 59 54 54 55 55 55 55 55 56 57 63 59 54 50 52 51 52 53 55 57 53 47 41 44 51 55 60 58 54 54 64 62 64
56 56 56 56 56 56 62 59 59 55 55 54 57 55 56 55 53 49 49 51 55 57 56 51 41 45 48 48 46 51 52 54 49 44 35 36 54 59 61 60 47 62 63 60
56 56 56 56 56 55 61 60 61 58 50 55 56 53 53 55 52 48 46 49 47 53 49 43 39 42 46 44 44 44 44 45 43 43 40 47 60 63 62 44 51 57 60 59
56 56 55 55 55 55 56 57 60 57 53 55 53 55 52 47 48 50 48 46 49 48 47 47 42 44 48 45 50 47 45 42 41 44 39 34 62 60 49 60 61 58 58 58
55 55 55 55 55 54 55 51 55 54 49 53 57 60 60 56 56 50 46 48 50 53 45 42 43 39 39 43 37 54 44 53 50 47 47 60 64 61 65 64 61 61 58 58
55 55 55 55 55 55 55 51 51 50 46 47 48 53 61 64 61 63 50 53 57 54 57 47 43 38 43 40 43 48 54 59 52 52 58 61 64 67 66 62 59 59 54 54
55 55 55 55 55 55 54 51 53 51 48 44 52 60 56 60 61 60 60 56 54 54 51 45 41 39 47 43 49 46 52 54 51 52 57 61 63 63 56 54 50 49 48 48
55 55 55 55 54 54 54 53 53 54 49 43 49 56 60 59 60 58 59 58 54 48 42 41 39 43 42 43 42 41 53 51 49 48 58 56 56 58 57 54 50 49 47 40
54 54 54 54 54 54 52 48 52 53 52 45 39 56 53 54 55 55 55 54 52 48 44 42 43 47 45 38 36 50 56 58 57 53 58 58 58 50 50 50 49 46 44 40
54 53 53 53 53 52 47 47 49 51 53 45 40 43 50 51 52 50 49 50 46 45 43 40 42 42 43 39 37 50 56 57 58 59 57 52 54 47 45 43 40 38 35 35
53 53 53 53 51 49 47 46 49 51 47 46 36 39 44 49 44 45 50 45 45 43 42 43 41 42 40 34 46 51 54 56 56 56 56 45 42 40 36 34 33 31 31 37
53 51 51 50 47 45 44 48 49 48 47 39 37 35 35 47 44 46 46 47 39 46 40 40 42 40 33 41 47 50 53 52 51 40 39 37 36 33 32 31 30 31 36 36
51 51 47 41 42 47 48 46 43 39 40 38 36 44 40 46 45 41 41 39 36 32 38 42 35 37 47 49 51 52 52 46 44 34 33 33 32 31 31 32 36 38 37 36
47 45 40 42 47 46 43 36 37 38 34 38 38 40 37 44 38 37 39 34 35 30 37 34 34 34 43 50 47 44 42 43 44 45 44 40 38 35 35 37 37 37 36 36
47 44 44 43 40 36 34 34 33 32 34 38 35 37 40 38 40 37 34 33 33 29 37 32 29 40 46 44 44 43 43 43 42 42 39 36 38 38 39 38 37 37 37 37
46 42 35 38 35 31 30 29 31 32 35 33 34 33 38 36 37 36 34 31 31 38 30 29 36 43 44 44 41 39 39 41 39 38 38 38 38 39 38 36 37 37 36 37
39 35 31 31 30 32 35 37 36 35 34 33 37 34 35 37 33 35 30 36 34 28 25 27 43 46 44 42 40 38 36 37 37 37 37 37 36 36 37 36 37 36 34 35
35 35 31 31 37 35 32 32 33 33 36 36 35 34 37 32 31 33 33 28 26 30 30 40 46 45 42 40 38 39 38 38 39 39 38 37 37 36 36 36 36 35 34 33
35 34 32 33 32 33 30 30 33 35 38 38 37 32 30 30 32 29 28 28 26 33 37 42 42 40 41 40 39 39 40 40 39 39 38 37 36 35 35 36 34 33 32 29
34 33 38 38 35 37 36 36 37 39 37 33 34 29 29 34 28 27 33 29 37 39 41 42 40 38 39 40 40 39 38 38 38 38 37 36 36 35 32 30 32 31 31 30
MSLP
1012.29 1011.79 1011.78 1011.27 1010.70 1009.68 1008.89 1007.78 1006.06 1005.77 1005.51 1004.92 1005.14 1006.28 1007.20 1008.00 1008.47 1008.26 1007.92 1007.77 1007.62 1007.53 1007.88 1008.08 1008.31 1008.77 1009.36 1009.78 1009.57 1009.20 1009.21 1008.56 1008.88 1009.47 1009.86 1009.86 1009.19 1008.55 1008.42 1007.85 1007.83 1007.46 1006.99 1004.93
1012.42 1012.11 1011.66 1011.53 1010.86 1010.55 1009.68 1008.09 1007.35 1006.16 1005.42 1005.50 1006.43 1007.52 1008.06 1008.62 1008.56 1008.61 1008.15 1008.17 1008.13 1008.27 1008.41 1008.61 1009.01 1009.55 1010.35 1010.37 1010.08 1010.12 1009.70 1009.33 1009.02 1009.86 1010.44 1010.30 1009.84 1009.43 1009.06 1008.70 1008.71 1007.70 1007.09 1005.10
1012.01 1012.01 1011.81 1011.61 1011.29 1010.76 1010.16 1008.57 1007.52 1006.94 1007.14 1007.83 1007.21 1007.65 1008.34 1008.87 1009.21 1009.11 1009.01 1008.98 1008.66 1008.44 1008.66 1008.74 1009.32 1009.81 1010.64 1010.82 1010.83 1010.87 1010.36 1009.91 1009.53 1009.44 1009.72 1009.83 1009.98 1009.87 1009.70 1009.46 1008.78 1007.79 1006.64 1005.56
1012.05 1011.88 1011.84 1011.73 1011.53 1011.04 1010.82 1009.37 1009.60 1009.61 1008.15 1008.28 1008.30 1008.23 1008.78 1008.98 1009.22 1009.28 1009.17 1008.99 1008.84 1008.57 1008.72 1009.06 1009.64 1010.20 1010.71 1011.11 1011.31 1011.13 1010.79 1010.23 1009.99 1009.98 1010.09 1010.13 1009.99 1009.74 1009.42 1009.03 1008.38 1007.59 1006.01 1005.52
1012.07 1012.04 1012.00 1011.86 1011.78 1011.28 1010.45 1009.48 1009.45 1009.70 1009.51 1009.39 1008.86 1008.92 1009.19 1009.32 1009.79 1009.91 1009.86 1009.53 1009.57 1009.30 1009.33 1009.41 1009.85 1010.15 1010.50 1010.72 1011.18 1011.02 1011.27 1010.65 1010.64 1010.19 1009.87 1009.75 1009.47 1009.12 1008.55 1008.21 1007.75 1007.09 1006.27 1005.23
1012.27 1012.23 1012.12 1012.14 1011.91 1011.68 1010.60 1010.85 1010.55 1009.53 1010.31 1010.05 1009.82 1010.00 1010.13 1010.26 1010.49 1010.96 1010.83 1010.48 1010.27 1010.43 1010.92 1010.76 1010.66 1010.69 1010.84 1010.99 1011.10 1011.24 1011.52 1011.20 1010.95 1010.20 1009.92 1009.96 1008.87 1007.21 1006.97 1006.95 1006.68 1006.30 1005.60 1004.73
1012.53 1012.24 1012.34 1012.34 1012.22 1011.84 1011.24 1011.43 1010.86 1009.81 1010.21 1010.26 1010.37 1010.79 1010.85 1011.01 1011.18 1011.22 1011.53 1011.40 1011.32 1012.18 1011.92 1011.66 1011.43 1011.32 1011.29 1011.38 1011.41 1011.55 1011.47 1011.72 1011.88 1010.99 1010.64 1009.29 1007.41 1006.77 1006.53 1006.40 1006.13 1005.72 1005.22 1005.12
1012.65 1012.40 1012.24 1012.34 1012.49 1012.50 1012.13 1012.00 1011.57 1010.87 1010.62 1010.72 1011.20 1011.49 1011.54 1011.96 1012.22 1012.32 1012.55 1012.91 1013.03 1012.66 1012.32 1011.88 1011.63 1011.46 1011.64 1011.63 1012.01 1011.90 1012.04 1012.15 1011.97 1011.56 1010.11 1008.28 1006.92 1006.32 1006.46 1006.43 1005.85 1005.35 1004.84 1005.24
1012.75 1012.73 1012.43 1012.43 1012.53 1012.59 1012.50 1012.57 1012.47 1012.09 1011.58 1011.63 1011.64 1011.86 1012.11 1011.87 1012.42 1013.36 1013.78 1014.32 1014.11 1013.55 1012.70 1012.60 1012.20 1011.69 1011.84 1011.76 1012.53 1012.75 1012.52 1012.46 1012.19 1011.60 1010.79 1008.36 1006.49 1006.60 1006.87 1006.78 1005.56 1004.86 1005.00 1005.80
1012.75 1012.76 1012.83 1012.69 1012.66 1012.89 1012.74 1012.77 1012.87 1012.49 1012.49 1012.64 1012.60 1012.47 1012.47 1012.57 1012.86 1013.28 1014.04 1014.34 1014.50 1014.16 1013.45 1013.08 1013.06 1012.91 1012.99 1012.42 1012.10 1012.14 1012.31 1012.22 1011.70 1011.35 1010.36 1007.89 1006.61 1006.15 1006.88 1006.89 1005.87 1006.23 1006.29 1006.63
1012.80 1012.80 1012.85 1012.95 1012.96 1012.99 1013.09 1013.26 1013.32 1013.36 1013.09 1012.76 1012.82 1012.80 1012.77 1013.23 1012.99 1013.12 1014.17 1014.63 1014.46 1014.21 1013.75 1013.75 1014.03 1013.76 1013.32 1013.13 1011.92 1011.48 1011.16 1011.14 1010.98 1010.71 1009.77 1007.76 1005.79 1006.37 1006.98 1005.94 1006.17 1006.72 1007.14 1007.57
1012.91 1012.88 1012.84 1012.98 1013.03 1013.25 1013.47 1013.71 1013.75 1014.00 1014.16 1013.79 1013.41 1012.86 1012.74 1012.82 1012.78 1013.06 1013.89 1013.85 1013.64 1013.72 1014.04 1014.74 1014.79 1014.79 1014.48 1013.47 1012.26 1011.12 1010.80 1009.69 1008.91 1008.78 1006.91 1006.19 1005.87 1005.99 1006.08 1006.36 1006.65 1007.01 1007.76 1008.43
1012.90 1012.97 1012.98 1012.98 1013.13 1013.18 1013.49 1013.77 1014.16 1014.55 1014.57 1014.14 1013.63 1012.34 1011.97 1012.35 1012.64 1012.75 1013.22 1013.41 1013.27 1013.62 1013.77 1014.71 1015.18 1015.18 1014.73 1013.65 1012.11 1011.05 1010.03 1009.26 1008.15 1007.66 1006.25 1005.90 1005.61 1005.69 1006.01 1006.58 1007.36 1008.05 1008.88 1009.26
1012.96 1013.00 1013.02 1013.06 1013.13 1013.14 1013.43 1013.82 1014.02 1014.08 1014.07 1013.77 1012.59 1012.30 1012.20 1012.15 1012.16 1012.40 1012.76 1013.33 1013.80 1014.23 1014.63 1015.01 1015.31 1015.20 1014.52 1013.40 1012.12 1011.24 1010.06 1009.21 1007.90 1007.02 1006.66 1006.08 1005.99 1006.24 1007.16 1007.86 1008.74 1009.41 1010.15 1010.61
1013.00 1013.15 1013.21 1013.25 1013.21 1013.26 1013.21 1013.53 1013.74 1013.77 1014.11 1013.60 1012.89 1012.44 1011.92 1012.31 1012.29 1012.52 1012.89 1013.34 1013.90 1014.55 1015.19 1015.30 1015.34 1015.06 1014.80 1013.80 1013.06 1010.76 1009.86 1008.69 1008.04 1006.41 1006.82 1006.80 1006.94 1007.62 1008.29 1008.86 1009.70 1010.38 1010.97 1011.79
1012.93 1013.13 1013.36 1013.40 1013.37 1013.41 1013.38 1013.64 1013.68 1013.70 1013.84 1013.82 1013.31 1012.35 1012.35 1012.74 1012.75 1012.75 1012.96 1013.34 1013.91 1014.45 1014.93 1015.13 1014.92 1014.76 1014.58 1013.48 1011.90 1009.19 1008.82 1008.50 1008.16 1007.42 1007.85 1007.88 1007.98 1009.27 1009.90 1010.28 1011.06 1011.65 1012.29 1012.80
1012.80 1012.99 1013.26 1013.38 1013.40 1013.49 1013.90 1014.18 1014.24 1013.89 1013.71 1013.89 1013.60 1012.65 1012.73 1013.07 1012.99 1013.32 1013.57 1013.84 1014.24 1014.58 1014.86 1014.84 1014.66 1014.59 1014.52 1013.22 1011.18 1007.87 1008.46 1008.30 1008.07 1008.12 1008.21 1008.40 1009.13 1010.10 1011.10 1011.96 1012.47 1013.08 1013.79 1014.12
1012.57 1012.83 1013.26 1013.34 1013.54 1013.98 1014.21 1014.40 1014.12 1013.67 1013.84 1013.89 1013.77 1013.28 1013.14 1013.19 1013.04 1013.09 1013.56 1013.87 1014.38 1014.53 1014.33 1014.30 1014.14 1014.10 1013.75 1011.97 1008.33 1008.59 1008.49 1008.17 1008.09 1008.09 1008.67 1009.83 1010.73 1011.58 1012.59 1013.46 1013.88 1014.11 1014.38 1014.40
1012.35 1012.93 1013.40 1013.65 1013.97 1014.40 1014.76 1014.63 1014.42 1014.23 1014.62 1014.14 1013.92 1013.46 1013.37 1013.67 1013.45 1013.64 1013.92 1014.04 1014.15 1014.21 1014.11 1014.08 1013.85 1012.93 1011.87 1008.72 1008.65 1008.17 1008.01 1008.31 1008.59 1009.74 1010.33 1011.01 1011.76 1012.60 1013.38 1013.91 1014.24 1014.29 1014.09 1014.24
1012.53 1012.95 1013.53 1014.24 1014.97 1015.03 1014.98 1014.87 1014.80 1014.68 1014.43 1014.63 1013.98 1013.35 1013.22 1013.26 1013.48 1014.08 1014.49 1014.78 1014.87 1014.50 1013.90 1013.87 1013.08 1011.03 1009.65 1008.56 1008.01 1008.13 1008.15 1008.75 1009.38 1010.28 1010.88 1011.70 1012.43 1013.01 1013.51 1013.83 1014.06 1014.02 1014.07 1014.20
1012.59 1013.02 1014.15 1015.10 1015.03 1014.98 1015.02 1015.12 1015.14 1015.09 1014.89 1014.36 1014.06 1013.80 1013.71 1013.92 1014.13 1014.52 1014.92 1015.17 1015.26 1014.88 1013.98 1013.77 1012.11 1010.30 1008.57 1008.31 1008.59 1009.00 1009.27 1009.43 1009.56 1009.94 1010.47 1011.10 1011.68 1012.63 1013.25 1013.59 1013.80 1014.01 1014.04 1014.08
1012.25 1013.22 1014.43 1014.95 1015.07 1015.23 1015.39 1015.17 1015.39 1015.17 1014.19 1014.02 1014.14 1014.31 1014.35 1014.86 1014.88 1014.88 1015.59 1015.42 1015.35 1014.31 1014.19 1013.55 1011.03 1008.82 1008.54 1008.93 1009.15 1009.56 1009.80 1009.86 1010.12 1010.44 1010.86 1011.22 1011.58 1012.18 1012.68 1013.20 1013.71 1014.04 1014.05 1014.08
1012.79 1013.31 1014.23 1014.30 1015.08 1014.96 1014.71 1014.28 1014.17 1014.05 1013.52 1014.07 1014.41 1014.67 1014.65 1015.23 1015.40 1015.30 1015.41 1015.08 1014.32 1014.32 1013.46 1011.42 1009.15 1008.41 1008.75 1009.03 1009.58 1010.05 1010.36 1010.37 1010.76 1011.15 1011.42 1011.71 1012.13 1012.46 1012.73 1013.06 1013.47 1013.82 1013.91 1013.88
1012.78 1013.31 1013.97 1013.71 1013.64 1013.02 1012.33 1012.48 1012.83 1013.39 1013.48 1013.92 1014.22 1014.58 1014.84 1015.11 1015.42 1015.08 1014.86 1014.13 1014.06 1013.00 1011.84 1009.55 1007.69 1007.76 1008.47 1009.05 1009.53 1009.97 1010.46 1010.72 1010.94 1011.29 1011.65 1012.03 1012.42 1012.63 1012.79 1013.07 1013.24 1013.46 1013.66 1013.86
1012.66 1012.92 1012.38 1012.08 1011.79 1012.02 1012.53 1012.97 1013.43 1013.90 1013.79 1013.93 1014.35 1014.65 1014.87 1015.04 1014.94 1014.51 1013.98 1013.51 1012.17 1010.97 1009.20 1007.69 1007.51 1007.92 1008.36 1008.82 1009.35 1009.78 1010.07 1010.45 1010.90 1011.37 1011.70 1011.91 1012.17 1012.45 1012.53 1012.86 1013.16 1013.39 1013.57 1013.79
1012.36 1012.19 1011.67 1011.78 1011.86 1011.98 1012.69 1012.98 1013.31 1013.74 1013.81 1014.09 1014.10 1014.33 1014.51 1014.02 1013.42 1012.88 1012.06 1011.40 1010.07 1008.54 1008.16 1007.82 1008.04 1008.31 1008.58 1008.98 1009.35 1009.61 1009.87 1010.22 1010.58 1010.95 1011.38 1011.94 1012.28 1012.39 1012.43 1012.68 1013.11 1013.27 1013.37 1013.54
1011.39 1011.07 1011.00 1010.86 1010.91 1011.01 1011.41 1011.89 1012.38 1013.08 1013.36 1013.35 1013.58 1013.46 1012.87 1012.66 1012.02 1011.21 1010.68 1009.54 1007.97 1008.00 1007.87 1007.97 1008.26 1008.56 1008.77 1009.12 1009.38 1009.48 1009.75 1010.05 1010.43 1010.98 1011.39 1011.85 1012.34 1012.61 1012.75 1012.88 1012.97 1013.12 1013.13 1013.13
Wind_Speed
5 9 9 13 16 22 5 3 3 8 10 4 3 8 5 2 4 2 3 5 8 7 3 4 3 6 5 2 2 2 4 4 6 3 4 5 4 4 8 5 6 5 5 7
4 6 9 10 14 14 5 3 3 4 6 7 9 7 8 7 3 6 3 4 5 1 4 5 5 4 5 4 4 5 1 1 6 5 3 1 3 5 8 7 4 10 5 4
7 6 6 8 9 12 6 2 1 4 6 3 8 7 6 5 4 6 5 4 4 6 6 7 6 5 5 3 5 5 1 3 5 6 6 4 3 6 8 11 10 12 15 20
6 7 7 6 8 11 5 3 3 2 4 7 9 6 2 6 5 4 6 4 8 5 5 8 6 5 6 5 2 3 4 4 6 7 8 9 11 13 14 17 20 19 21 21
7 5 6 8 8 13 2 2 2 2 3 4 6 7 6 7 5 6 5 5 5 6 7 8 6 4 1 2 3 2 1 4 4 11 13 13 14 18 20 22 23 23 23 26
7 3 3 5 8 8 2 1 0 4 1 3 3 3 3 1 1 4 5 3 4 5 6 5 4 3 1 1 1 4 4 4 5 6 3 8 14 21 23 18 18 14 16 18
4 5 1 1 5 9 2 3 3 3 4 2 3 4 1 3 2 2 3 3 2 4 2 2 3 5 6 7 8 8 7 4 3 7 9 6 4 7 6 8 13 16 18 18
4 5 3 3 3 4 2 2 2 2 5 4 4 4 3 4 3 2 1 3 4 1 2 2 3 4 4 1 3 6 9 8 4 4 7 14 19 8 12 10 14 15 17 14
2 4 5 4 4 3 0 1 1 2 1 3 3 6 5 4 5 5 3 2 4 4 2 3 2 0 3 4 5 1 5 9 7 2 5 6 3 6 1 8 17 7 3 4
1 1 4 5 5 7 0 2 3 1 1 3 3 3 3 3 2 3 2 4 1 3 2 2 2 2 1 3 3 5 5 4 11 12 9 11 10 8 1 6 7 4 2 6
1 0 1 4 7 7 2 2 2 2 1 1 3 2 3 1 1 3 5 3 3 2 3 2 2 4 3 4 5 4 6 4 5 4 6 12 12 4 7 9 4 4 5 4
0 0 1 3 4 12 4 1 1 2 2 3 3 7 7 2 1 4 2 3 2 2 2 1 2 3 1 5 5 9 7 11 8 13 9 8 6 12 13 12 14 9 9 4
0 1 1 2 4 7 5 2 3 3 2 3 2 7 10 10 11 5 3 4 4 5 1 3 2 4 3 6 8 10 13 17 15 15 14 20 19 18 13 10 9 7 2 4
3 1 2 4 3 3 6 2 2 1 2 2 2 1 4 3 6 12 10 2 4 4 1 2 3 3 7 3 7 5 8 7 15 20 21 23 19 12 12 4 3 4 2 2
2 1 1 2 2 3 3 2 3 2 2 1 1 5 6 3 5 10 11 12 5 2 2 2 4 2 2 3 2 10 11 18 15 16 20 20 20 15 14 8 6 5 6 6
4 1 1 1 2 4 1 2 1 3 2 2 1 1 4 5 2 8 9 7 5 3 3 3 3 2 4 4 5 13 14 17 21 21 21 20 20 7 8 7 3 4 3 6
2 2 2 1 2 1 1 2 3 4 3 2 2 3 4 2 3 3 2 2 2 2 2 3 3 4 5 3 14 28 20 20 20 20 20 17 14 10 5 1 5 7 6 3
4 3 3 6 12 9 1 4 7 3 2 1 2 2 2 2 2 3 1 3 2 3 2 2 3 3 3 8 19 16 16 15 15 16 9 4 5 7 7 6 5 5 4 4
9 14 9 3 3 1 1 3 4 2 1 2 2 3 1 2 2 2 2 1 2 1 3 3 4 5 9 16 11 14 13 12 15 5 4 3 1 6 6 5 5 5 5 3
14 3 2 2 2 2 3 0 1 3 2 1 3 1 1 2 2 2 1 2 2 3 2 1 4 8 14 16 17 15 15 11 2 2 1 4 5 8 8 7 7 5 4 3
2 3 2 1 3 0 2 1 1 1 3 3 2 4 3 1 2 2 1 0 0 3 1 3 3 5 12 13 8 5 6 8 9 9 6 8 8 11 9 9 7 5 5 6
5 7 5 2 2 2 1 3 2 4 4 3 3 2 1 2 1 2 2 3 3 6 3 4 5 6 3 3 4 4 5 4 3 4 7 7 9 10 9 7 6 6 5 5
2 3 3 4 2 5 7 8 5 5 5 4 3 3 2 2 0 1 2 5 5 1 5 6 7 3 4 4 4 4 3 3 5 7 7 8 9 7 7 6 5 4 5 5
3 4 6 7 7 7 6 3 3 2 3 6 5 4 3 2 3 2 5 4 2 5 6 9 4 4 3 3 4 5 7 8 8 8 8 8 8 7 6 4 4 4 6 7
4 4 6 7 3 1 3 3 3 1 4 5 4 3 3 3 4 5 4 5 7 6 7 3 1 3 1 2 5 7 8 9 9 9 9 8 8 6 6 5 4 5 6 7
3 5 3 2 2 4 3 4 4 5 6 3 1 4 3 7 5 7 9 5 8 5 4 3 1 2 3 3 5 7 7 9 9 9 8 7 7 6 5 3 4 5 6 7
5 4 4 3 2 2 3 6 5 8 6 4 3 6 11 2 5 5 5 8 6 0 3 3 3 3 4 4 6 7 8 9 9 8 7 6 4 2 3 6 5 5 8 8
Wind_Direction
314 320 333 342 345 334 298 307 309 357 334 127 59 80 91 118 99 75 79 71 63 92 104 95 95 113 49 70 172 156 41 315 146 130 78 3 349 251 211 246 179 245 348 271
338 319 331 349 348 0 316 54 335 5 317 73 80 107 87 58 54 37 56 79 44 105 91 119 93 94 52 68 41 24 105 191 160 155 162 123 248 217 258 275 319 256 233 254
334 327 330 350 355 346 313 312 70 53 61 17 79 85 58 96 46 65 56 101 127 130 73 44 114 96 54 59 55 354 307 335 312 4 52 37 195 223 243 240 251 256 245 265
350 334 334 352 354 341 298 354 79 342 46 46 44 46 64 75 61 62 23 81 56 50 103 86 87 86 128 85 32 53 358 288 332 315 308 291 274 266 254 235 244 252 261 272
337 348 343 341 352 328 308 13 153 136 81 23 12 5 37 36 60 7 48 80 65 39 88 49 126 137 159 95 119 144 78 277 313 290 282 280 275 263 259 253 256 260 263 270
308 358 337 345 340 322 24 54 63 289 125 120 212 55 94 96 5 62 43 65 106 104 65 35 30 351 287 103 240 204 231 272 297 272 328 293 273 253 242 247 248 254 259 272
258 302 98 88 357 359 19 33 301 253 121 194 119 139 158 148 79 74 62 14 304 70 18 317 269 267 265 265 254 254 269 261 307 290 298 246 289 279 285 265 263 261 267 280
193 252 268 177 142 17 52 36 323 335 123 125 163 180 157 147 126 119 94 50 27 331 286 260 258 177 195 154 8 263 236 245 255 253 248 288 273 250 248 245 258 265 269 280
226 195 249 228 172 152 103 85 357 50 152 156 88 162 192 192 170 146 126 12 327 270 219 216 186 217 7 151 160 42 193 225 229 151 265 260 96 107 35 308 288 15 13 212
237 238 204 225 210 171 155 62 340 76 109 149 194 202 174 146 110 98 147 149 156 276 156 144 163 217 10 249 247 171 143 180 220 238 263 271 268 283 295 252 339 60 206 191
1 24 236 205 201 186 85 69 204 344 308 228 199 215 159 134 267 190 137 149 166 141 205 207 185 232 185 254 237 201 195 198 206 219 251 274 230 231 217 305 314 228 213 217
70 103 173 216 193 180 182 132 42 51 68 339 304 260 254 228 168 124 186 358 138 129 114 204 116 194 207 230 258 220 248 232 249 203 214 254 238 258 284 295 281 259 238 219
163 109 112 134 190 182 174 95 119 90 201 260 314 258 258 225 223 217 165 220 183 193 47 141 137 224 177 214 230 254 259 248 252 273 249 274 282 296 300 271 265 296 46 141
266 222 121 133 134 160 145 149 177 240 148 259 138 303 268 303 230 227 237 42 74 88 151 149 170 212 198 244 275 292 267 296 264 267 277 286 283 323 16 111 85 109 106 86
295 289 159 138 136 129 137 151 193 269 311 323 263 285 228 279 251 219 218 224 193 118 140 182 212 216 239 203 256 254 247 261 262 270 289 308 311 336 342 309 229 205 155 116
257 143 208 159 164 174 155 193 113 209 168 254 276 34 169 127 200 218 213 209 218 155 175 186 208 218 232 251 244 260 260 255 259 277 286 286 293 343 343 283 200 150 151 121
238 236 169 39 168 97 312 21 29 327 156 191 257 261 103 106 154 123 118 119 137 164 183 208 211 190 199 244 266 270 276 283 289 289 290 287 290 328 83 132 112 102 83 101
182 161 133 112 105 112 82 358 350 337 103 172 230 236 283 356 115 130 128 140 164 188 219 192 200 145 188 254 245 268 272 279 283 282 307 52 84 96 97 103 109 110 132 181
129 119 119 118 39 85 68 306 332 19 354 223 173 195 181 241 99 75 122 26 217 63 229 217 193 183 220 241 259 265 288 299 308 66 67 73 174 141 133 129 140 170 188 200
131 129 165 123 50 305 267 230 356 11 346 14 251 242 155 150 139 84 103 40 267 270 228 221 241 253 264 269 267 282 300 330 8 116 220 166 175 173 173 190 193 199 200 227
125 133 84 82 292 171 26 69 206 129 257 201 227 222 140 295 121 117 60 357 294 270 147 256 255 256 246 261 260 303 306 288 268 245 270 188 179 176 183 190 197 201 214 236
130 109 110 135 80 66 190 200 158 219 233 161 167 141 65 92 16 127 169 209 182 246 134 242 245 242 162 230 272 282 278 262 212 211 167 155 162 173 183 181 194 215 234 257
81 86 104 155 136 186 207 193 206 213 181 160 154 130 114 117 283 153 176 218 228 72 226 233 236 113 208 231 225 218 237 194 178 165 153 153 152 157 169 178 194 223 262 284
146 152 184 209 176 220 196 212 111 84 118 142 140 113 135 124 180 172 227 209 228 233 238 235 238 205 182 186 195 189 197 191 184 179 168 168 175 184 185 203 219 251 274 289
165 180 227 203 213 70 65 71 119 144 145 138 125 110 169 168 215 209 223 213 232 224 237 239 189 146 183 212 197 210 196 193 198 193 195 197 202 207 217 221 251 264 276 281
171 217 216 120 170 180 177 169 166 162 155 128 127 138 197 217 221 196 211 229 221 237 224 255 214 259 272 251 218 215 207 204 206 204 208 214 217 226 241 259 260 270 281 280
210 211 220 222 333 244 158 167 168 161 159 181 160 194 218 113 222 218 214 222 251 257 242 225 213 240 252 255 236 218 212 213 214 214 207 220 229 244 252 265 281 286 281 276